SKYNET 5C (33055 NORAD) Tracking and Keplerian Element Data

This shows tracking and keplerian element data for the satellite.

Feedback or suggestion? Click here.




ElementValue
Catalog33055
NameSKYNET 5C
Epoch Orbit6416
Epoch Day354.19103925
Epoch Year2025
RAAN79.1867
Inclination3.3299
Eccentricity0.0003917
Argument of Perigee200.1278
Mean Anonmoly220.6661
Mean Motion1.0027186
Decay Rate-1.19E-06
L11 33055U 08030A 25354.19103925 -.00000119 00000+0 00000+0 0 9996
L22 33055 3.3299 79.1867 0003917 200.1278 220.6661 1.00271860 64167



Live tracking and technical data element details for SKYNET 5C (NORAD 33055). SKYNET 5C can be tracked NOW for your location showing map with azimuth and elevation plus other details from your city location.







IsCatalogInMostPopularTable: catalog: 33055, numindb: 511
Update: records affected: 1



GetName: 33055 SKYNET 5C

Hit Count: updated at: Sat, 14 Mar 2026 02:26:42 GMT